This demonstration page uses our WeatherBlox Daily Observations layout. Learn more.

Left ArrowRight Arrow

38.88101, -77.10428

Hourly Observations for September 17, 2022

Temp ( °F °C ) Dew Point ( °F °C ) Humidity (%) Winds ( mph kmh ) Pressure ( in mb ) Visibility ( mi km ) Precip ( " mm )
12:52 am 00:52 Clear 68 20 60 15.6 76 76 Calm 30.21 1023 9 14 0.00 0.00
1:52 am 01:52 Clear 66 18.9 62 16.7 87 87 NNW 3 6 30.21 1023 9 14 0.00 0.00
2:52 am 02:52 Clear 66 18.9 62 16.7 87 87 N 3 6 30.21 1023 9 14 0.00 0.00
3:52 am 03:52 Clear 65 18.3 61 16.1 87 87 Calm 30.22 1023 8 13 0.00 0.00
4:52 am 04:52 Clear 64 17.8 60 15.6 87 87 SW 3 6 30.22 1024 8 13 0.00 0.00
5:52 am 05:52 Mostly Clear 65 18.3 61 16.1 87 87 Calm 30.23 1024 8 13 0.00 0.00
6:52 am 06:52 Partly Cloudy 64 17.8 60 15.6 87 87 Calm 30.24 1024 8 13 0.00 0.00
7:52 am 07:52 Partly Cloudy 66 18.9 63 17.2 90 90 Calm 30.25 1024 7 11 0.00 0.00
8:52 am 08:52 Mostly Cloudy 69 20.6 63 17.2 81 81 NE 3 6 30.25 1025 7 11 0.00 0.00
9:52 am 09:52 Partly Cloudy 71 21.7 63 17.2 76 76 Calm 30.26 1025 7 11 0.00 0.00
10:52 am 10:52 Partly Cloudy 75 23.9 64 17.8 69 69 VRB 3 6 30.27 1025 9 14 0.00 0.00
11:52 am 11:52 Mostly Sunny 78 25.6 60 15.6 54 54 S 7 11 30.25 1025 10 16 0.00 0.00
12:52 pm 12:52 Mostly Sunny 80 26.7 58 14.4 47 47 S 7 11 30.24 1024 10 16 0.00 0.00
1:52 pm 13:52 Mostly Sunny 81 27.2 59 15 47 47 SSE 6 9 30.23 1024 10 16 0.00 0.00
2:52 pm 14:52 Mostly Sunny 82 27.8 58 14.4 44 44 S 8 13 30.22 1023 10 16 0.00 0.00
3:52 pm 15:52 Mostly Sunny 81 27.2 57 13.9 44 44 SSW 8 13 30.21 1023 10 16 0.00 0.00
4:52 pm 16:52 Mostly Sunny 80 26.7 58 14.4 47 47 S 9 15 30.19 1023 10 16 0.00 0.00
5:52 pm 17:52 Mostly Sunny 78 25.6 59 15 52 52 S 10 17 30.19 1022 10 16 0.00 0.00
6:52 pm 18:52 Partly Cloudy 75 23.9 57 13.9 54 54 S 7 11 30.19 1022 10 16 0.00 0.00
7:52 pm 19:52 Mostly Cloudy 73 22.8 60 15.6 64 64 SSE 5 7 30.18 1022 10 16 0.00 0.00
8:52 pm 20:52 Mostly Cloudy 72 22.2 61 16.1 68 68 S 8 13 30.19 1023 10 16 0.00 0.00
9:52 pm 21:52 Mostly Cloudy 70 21.1 61 16.1 73 73 SSE 6 9 30.19 1022 10 16 0.00 0.00
10:52 pm 22:52 Partly Cloudy 70 21.1 60 15.6 71 71 S 10 17 30.19 1022 10 16 0.00 0.00
11:52 pm 23:52 Partly Cloudy 70 21.1 61 16.1 73 73 S 9 15 30.18 1022 10 16 0.00 0.00

Powered by AerisWeather